Location: Theydon Bois
(51.6750°N, 0.1050°E)
Time: 06:27:43
(UTC+00:00)

Envisat - Pass Details

Date: 16 December 2019
Orbit: 764 x 766 km, 98.1° (Epoch: 20 January)

Event Time Altitude Azimuth Distance (km) Brightness Sun altitude
Rises 18:54:47 0° 201° (SSW) 3,223 6.5 -27.2°
Reaches altitude 10° 18:57:30 10° 215° (SW) 2,302 5.9 -27.6°
Maximum altitude 19:01:35 24° 269° (W) 1,552 5.2 -28.2°
Drops below altitude 10° 19:05:41 10° 323° (NW) 2,316 5.9 -28.9°
Sets 19:08:26 0° 337° (NNW) 3,247 6.5 -29.3°
